Location: Rockford
(42.2710°N, 89.0940°W)
Time: 11:40:47
(UTC-05:00)

Daily predictions for brighter satellites

Satellite Brightness Start Highest point End
(mag) Time Altitude Azimuth Time Altitude Azimuth Time Altitude Azimuth
COSMOS 2455 4.1 20:50:06 10° SSE 20:54:16 20° ESE 20:58:26 10° ENE
SJ-11-01 4.3 20:52:31 10° SSE 20:57:14 72° ENE 21:01:57 10° N
Cosmos 1464 Rocket 4.4 20:52:23 10° NNW 20:58:41 74° W 21:05:01 10° S
Cosmos 1315 Rocket 2.8 20:57:01 10° S 21:00:59 67° E 21:05:02 10° NNE
ATLAS 3B R/B 3.5 20:58:00 10° SW 21:05:23 64° NW 21:12:30 10° NNE
ATLAS 5 CENTAUR R/B 4.3 21:02:24 10° N 21:06:21 18° NNE 21:10:32 10° ENE
Cosmos 2242 Rocket 3.9 21:05:56 10° NNW 21:10:26 70° W 21:14:51 10° S
SPOT 5 4.1 21:12:00 10° SE 21:16:37 31° ENE 21:21:14 10° N
Timation 2 Rocket 4.1 21:11:10 10° NNW 21:17:28 90° ENE 21:24:02 10° SSE
Cosmos 2082 Rocket 3.0 21:12:10 10° NW 21:17:38 51° WSW 21:23:06 10° S
USA 238 DEB 4.3 21:13:49 10° SW 21:20:41 64° NW 21:27:41 10° NNE
USA 238 4.3 21:13:55 10° SW 21:20:48 65° NW 21:27:47 10° NNE
Resurs 01 Rocket 3.8 21:17:49 10° SSW 21:21:26 25° W 21:25:05 10° NW
Terra 4.0 21:20:15 10° E 21:21:53 12° ENE 21:23:30 10° NE
Cosmos 724 4.4 21:17:14 10° SSW 21:23:26 89° ESE 21:29:35 10° NNE
In-Cosmos 22 Rocket 4.5 21:18:44 10° SSW 21:24:29 80° W 21:30:21 10° N
ARGOS 3.7 21:21:03 11° SE 21:25:50 42° ENE 21:30:51 10° N
SAR-Lupe-4 3.5 21:22:21 10° SSE 21:25:55 78° ENE 21:29:30 10° N
YAOGAN 6 2.9 21:23:39 10° S 21:27:21 69° W 21:31:03 10° NNW
ERS-1 Rocket 3.1 21:23:19 10° SSE 21:28:17 65° ENE 21:33:18 10° N
Aureole 3 3.9 21:31:06 17° SE 21:32:39 24° E 21:35:10 10° NE
Tiangong 2 1.1 21:30:36 10° W 21:33:49 89° N 21:36:22 15° E
Cosmos 1833 Rocket 3.9 21:30:07 10° NW 21:35:18 38° WSW 21:40:27 10° S
Cosmos 1939 Rocket 4.3 21:32:01 10° SSW 21:35:54 39° W 21:39:48 10° NNW
OAO 2 Rocket 4.3 21:32:05 10° WSW 21:36:26 30° SSW 21:39:27 16° SE
GPS 2-04 Rocket1 3.7 21:36:13 10° SW 21:39:02 21° SSE 21:39:58 19° SE
Cosmos 1825 3.5 21:37:41 18° SE 21:39:17 23° E 21:42:19 10° NE
NOSS 3-2 (A) 3.5 21:33:45 10° SW 21:39:44 86° NW 21:46:22 10° NE
SL-08 RB Rocket 4.3 21:37:01 16° SE 21:40:23 42° ENE 21:44:48 10° N
Lacrosse 5 rocket 3.1 21:44:20 13° E 21:44:20 13° E 21:44:57 10° E
Milstar 3 4.2 21:36:15 10° SW 21:43:50 22° S 21:47:21 16° SE
Cosmos 1892 3.0 21:42:11 10° SSW 21:46:01 67° W 21:49:52 10° N
SAR-Lupe-1 4.3 21:43:59 12° S 21:47:11 66° WSW 21:50:45 10° NNW
H-2A R/B 4.2 21:47:10 10° ENE 21:48:20 11° ENE 21:49:30 10° NE
Helios 1B rocket 3.7 21:46:47 10° N 21:50:43 44° WNW 21:54:36 10° SW
USA 215 3.4 21:45:39 16° SE 21:51:01 70° SW 21:57:36 10° NW
Cosmos 1346 Rocket 3.1 21:48:13 10° NNW 21:52:09 64° W 21:55:37 13° S
Cosmos 1408 3.2 21:53:50 24° SE 21:55:27 38° E 21:58:57 10° NNE
NOSS 3-2 (C) 3.5 21:51:46 10° SW 21:57:47 85° NW 22:04:26 10° NE
Cosmos 1125 Rocket 4.0 21:57:28 18° SSE 22:00:57 40° ESE 22:05:49 10° NE
Meteor 1-10 Rocket 4.4 21:55:14 10° N 22:01:09 62° ENE 22:05:07 21° SSE
Lacrosse 4 Rocket 3.3 21:59:54 10° N 22:03:23 21° NE 22:05:48 14° E
Meteor 1-27 Rocket 4.4 21:58:43 10° N 22:04:09 39° ENE 22:07:07 23° SE
Cosmos 1943 Rocket 2.6 22:05:38 20° SSE 22:08:58 39° ESE 22:14:07 10° NE
MetOp-A 4.4 22:04:34 14° S 22:09:08 66° WSW 22:14:29 10° NNW
Cosmos 372 Rocket 4.5 22:06:47 23° SSE 22:09:19 39° ESE 22:14:03 10° NE
H-2A R/B 2.2 22:05:53 23° SSE 22:09:21 68° ENE 22:14:42 10° N
Cosmos 2369 Rocket 2.1 22:09:32 10° SSW 22:15:10 80° ESE 22:20:53 10° NNE
Cosmos 1340 3.0 22:13:05 10° N 22:16:46 47° ENE 22:17:47 37° ESE
Cosmos 1606 2.5 22:13:01 10° N 22:16:49 78° E 22:18:16 36° SSE
Cosmos 1703 Rocket 4.4 22:14:46 10° NNW 22:19:03 48° W 22:22:20 16° SSW
DNEPR-1 R/B 4.1 22:17:24 16° S 22:21:17 45° ESE 22:25:39 10° NE
Okean 1-7 3.3 22:18:57 10° NNW 22:23:20 65° W 22:25:53 24° S
Cosmos 1782 2.8 22:19:22 10° N 22:23:23 77° W 22:25:10 32° S
Meteor 2-6 Rocket 4.3 22:19:21 10° N 22:25:18 89° ENE 22:28:54 25° S
CENTAUR R/B 2.5 22:20:39 10° SSW 22:26:27 56° ESE 22:33:03 10° NE
Shenzhou-11 Module 2.5 22:24:42 10° W 22:27:28 45° SW 22:27:28 45° SW
Cosmos 2221 Rocket 4.4 22:31:28 10° NNW 22:35:42 46° W 22:38:18 21° SSW
Cosmos 1733 Rocket 3.2 22:34:59 43° SE 22:35:51 50° E 22:40:03 10° NNE
IGS 5A 3.7 22:36:37 43° ESE 22:37:33 53° ENE 22:41:36 10° N
COSMOS 2455 3.2 22:33:37 10° SW 22:39:35 68° WNW 22:45:37 10° NNE
Cosmos 1862 3.2 22:38:51 50° SSE 22:39:47 75° E 22:43:46 10° NNE
Landsat 7 3.8 22:41:59 39° S 22:43:47 86° WSW 22:48:35 10° NNW
DMSP B5D2-2 4.0 22:39:28 10° NNE 22:44:43 84° ESE 22:47:26 29° S
ATLAS 5 CENTAUR R/B 2.5 22:46:06 10° NNW 22:52:03 69° NE 22:54:47 36° SE
GEOS 3 Rocket 3.8 22:51:25 39° S 22:53:13 63° WSW 22:58:25 10° NW
SPOT 5 4.3 22:51:10 19° SSW 22:54:31 37° W 22:59:28 10° NNW
Meteor 2-20 4.5 22:56:37 39° SSE 22:58:50 64° E 23:04:53 10° NNE
Terra 1.7 22:57:36 49° S 22:58:54 86° WSW 23:03:41 10° NNW
BREEZE M DEB (TANK) 3.7 22:48:59 10° WSW 22:58:55 76° NNW 23:02:10 10° ENE
Cosmos 1092 Rocket 4.0 22:57:54 40° SSE 23:00:04 62° E 23:06:07 10° NNE
Cosmos 158 Rocket 4.1 22:57:11 10° NNW 23:02:01 58° WSW 23:03:23 42° SSW
Cosmos 1048 Rocket 4.3 22:57:46 10° NNW 23:03:02 61° WSW 23:04:45 40° SSW
Nadezhda 4 Rocket 3.9 23:01:48 31° S 23:04:59 85° W 23:11:12 10° N
CARTOSAT-1 3.7 23:05:23 54° SSW 23:06:11 69° WSW 23:10:31 10° NNW
CZ-4B R/B 3.7 23:03:52 10° NNE 23:08:41 46° E 23:08:53 46° ESE
Tiangong 2 3.4 23:07:40 10° W 23:08:44 18° W 23:08:44 18° W
Cosmos 1674 Rocket 3.4 23:07:14 10° N 23:11:35 86° W 23:12:01 72° S
Cosmos 2251 Rocket 4.0 23:07:37 10° N 23:12:40 45° ENE 23:13:44 40° E
Cosmos 1825 4.4 23:12:33 14° WSW 23:14:47 22° WNW 23:17:48 10° NNW
H-2A ROCKET BODY 4.2 23:10:12 10° SW 23:37:05 - SE 23:11:45 17° SSW
Cosmos 1378 Rocket 3.7 23:10:43 10° N 23:15:05 56° E 23:15:12 56° E
Cosmos 1656 Rocket 3.6 23:14:57 54° SSE 23:15:49 62° ESE 23:21:16 10° NNE
BREEZE-M DEB (TANK) 3.9 23:12:01 10° WNW 23:16:07 84° SSW 23:27:59 20° SE
CZ-4 R/B 3.6 23:13:32 10° NNE 23:18:13 75° ESE 23:18:37 69° SSE
DELTA 2 DEB (DPAF) 4.3 23:18:58 56° E 23:19:14 57° ENE 23:23:37 10° N
Spot 4 3.7 23:19:26 64° SE 23:20:07 78° ENE 23:24:58 10° N
Cosmos 2227 Rocket 4.2 23:17:20 10° N 23:21:11 18° NE 23:24:02 13° E
Lacrosse 5 rocket 1.9 23:19:48 29° W 23:21:20 50° NW 23:24:59 10° NE
Cosmos 2219 3.9 23:16:22 10° NNW 23:21:53 45° ENE 23:23:26 37° E
H-2A R/B 1.9 23:23:41 69° WSW 23:23:46 69° WSW 23:27:53 10° NNW
Cosmos 2344 3.6 23:17:17 10° SW 23:24:57 84° NW 23:33:35 10° NE
Cosmos 1812 3.7 23:21:28 10° N 23:24:34 39° NE 23:24:34 39° NE
CZ-2C R/B 3.7 23:34:40 38° E 23:35:20 40° ENE 23:40:02 10° N
CZ-2C R/B 3.4 23:33:44 10° NNE 23:38:07 36° E 23:38:07 36° E
Okean 2 Rocket 3.9 23:41:48 39° ENE 23:41:48 39° ENE 23:45:14 10° NNE
Lacrosse 4 Rocket 2.2 23:38:02 10° NW 23:42:08 46° WSW 23:42:08 46° WSW
Cosmos 405 Rocket 3.7 23:39:12 10° N 23:41:53 39° NNE 23:41:53 39° NNE
Cosmos 1908 Rocket 3.7 23:44:18 65° W 23:44:28 66° W 23:48:56 10° N
Cosmos 1867 3.6 23:39:33 10° NNW 23:45:01 71° NE 23:45:47 61° ESE
Cosmos 1655 Rocket 3.9 23:47:23 58° SE 23:48:25 69° E 23:54:37 10° NNE
H-2A R/B 4.3 23:46:32 12° WSW 23:49:12 16° W 23:52:31 10° NW
Cosmos 1943 Rocket 3.8 23:47:50 10° WSW 23:52:46 31° NW 23:57:43 10° N
deb Chang Zheng 4 4.5 23:50:47 10° N 23:55:00 43° WNW 23:55:44 39° W
